Location: Bluff Heights
(33.7692°N, 118.1592°W)
Time: 12:51:17
(UTC+00:00)

S-56A Canister/Altair - Pass Details

Date: 28 July 2021
Orbit: 632 x 2500 km, 38.9° (Epoch: 25 September)

Event Time Altitude Azimuth Distance (km) Brightness Sun altitude
Rises 08:01:20 0° 285° (WNW) 5,474 12.0 -37.3°
Reaches altitude 10° 08:07:16 10° 266° (W) 4,061 11.1 -37.3°
Enters shadow 08:08:19 12° 261° (W) 3,850 10.9 -37.3°
